Flag for Guatemala Weather past 2 weeks in Guatemala, Guatemala

Now
61 °F

Clear.


Feels Like: 61 °F
Forecast: 63 / 79 °F
Wind: 7 mph from North

Location: Guatemala Aeropuertola Aurora


UV Index: 7 (High)

Visibility: 10 mi


Pressure: 30.21 "Hg

Humidity: 83%

Dew point: 55 °F

Location of GuatemalaLocation

Historic Weather in Guatemala

°F

Guatemala temperature yesterday

Maximum temperature yesterday: 82 °F (at 2:00 PM)
Minimum temperature yesterday: 61 °F (at 3:00 AM)
Average temperature yesterday: 72 °F

Past Weeks' High & Low Weather Summary

 TemperatureHumidityPressure
High82 °F (Apr 21, 2:00 PM)94% (Apr 13, 5:00 AM)30.45 "Hg (Apr 13, 5:00 AM)
Low55 °F (Apr 9, 9:00 AM)24% (Apr 12, 4:00 PM)30.12 "Hg (Apr 13, 3:00 PM)
Average69 °F67%30.26 "Hg
* Reported Apr 9 3:00 AM — Apr 24 3:00 AM, Guatemala, Weather by CustomWeather, © 2014

Note: Actual official high and low records may vary slightly from our data, if they occured in-between our weather recording intervals... More about our weather records

Advertising

Historic Weather Conditions — Data for Previous 24 hours

 ConditionsComfort  
Time TempWeatherWind HumidityBarometerVisibility
3:00 AM
Apr 24
63 °FClear.5 mph83%30.24 "Hg10 mi
2:00 AM63 °FClear.5 mph77%30.24 "Hg10 mi
1:00 AM64 °FClear.7 mph73%30.24 "Hg10 mi
12:00 AM66 °FClear.12 mph68%30.27 "Hg10 mi
11:00 PM
Apr 23
66 °FClear.9 mph68%30.27 "Hg10 mi
10:00 PM68 °FClear.7 mph56%30.27 "Hg10 mi
9:00 PM70 °FClear.7 mph57%30.27 "Hg5 mi
8:00 PM70 °FPassing clouds.No wind83%30.24 "Hg4 mi
7:00 PM72 °FPassing clouds.3 mph78%30.21 "Hg4 mi
6:00 PM73 °FPassing clouds.12 mph74%30.18 "Hg5 mi
5:00 PM77 °FScattered clouds.9 mph61%30.15 "Hg5 mi
4:00 PM79 °FScattered clouds.6 mph54%30.15 "HgN/A
3:00 PM79 °FScattered clouds.9 mph54%30.15 "HgN/A
2:05 PMN/AScattered clouds.9 mphN/AN/AN/A
2:00 PM82 °FScattered clouds.12 mph37%30.18 "HgN/A
1:00 PM81 °FPartly sunny.9 mph37%30.21 "HgN/A
12:00 PM81 °FPartly sunny.12 mph37%30.24 "HgN/A
11:00 AM77 °FScattered clouds.9 mph42%30.27 "HgN/A
10:00 AM75 °FScattered clouds.14 mph50%30.30 "HgN/A
9:00 AM72 °FPassing clouds.7 mph61%30.30 "HgN/A
8:00 AM68 °FSunny.9 mph73%30.27 "Hg10 mi
Weather by CustomWeather, © 2014

See weather overview